GW4212 Weather Reports


time (UTC)temp
F
wind
direction
speed
knots
gust
knots
rain 1hr
in
rain 24hr
in
rain mn
in
humidity
%
barometer
mb
20260510190425 66 0.0 0.0 0.00 0.00 0.00 99 1012.4
20260510185413 66 0.0 0.0 0.00 0.00 0.00 99 1012.3
20260510184302 66 0.0 0.0 0.00 0.00 0.00 99 1012.2
20260510183251 66 0.0 0.0 0.00 0.00 0.00 99 1012.2
20260510182241 67 0.0 0.0 0.00 0.00 0.00 99 1012.4
20260510181226 67 0.0 0.0 0.00 0.00 0.00 99 1012.3
20260510180215 67 0.0 0.0 0.00 0.00 0.00 99 1012.2
20260510175146 67 0.0 0.0 0.00 0.00 0.00 99 1012.2
20260510174135 67 0.0 0.0 0.00 0.00 0.00 99 1012.1
20260510173124 67 0.0 0.0 0.00 0.00 0.00 99 1012.1
20260510172118 68 0.0 0.0 0.00 0.00 0.00 99 1012.0
20260510171044 67 0.0 0.0 0.00 0.00 0.00 99 1011.8
20260510170034 68 0.0 0.0 0.00 0.00 0.00 99 1011.9
20260510165021 68 0.0 0.0 0.00 0.00 0.00 99 1011.9
20260510164012 68 0.0 0.0 0.00 0.00 0.00 99 1011.9
20260510162958 68 0.0 0.0 0.00 0.00 0.00 99 1012.1
20260510161952 68 0.0 0.0 0.00 0.00 0.00 99 1012.3
20260510160920 69 0.0 0.0 0.00 0.00 0.00 99 1012.3
20260510155852 69 0.0 0.0 0.00 0.00 0.00 99 1012.5
20260510154841 70 0.0 0.0 0.00 0.00 0.00 99 1012.5
20260510153830 69 0.0 0.0 0.00 0.00 0.00 99 1012.5
20260510152802 68 0.0 0.0 0.00 0.00 0.00 99 1012.6
20260510151756 69 0.0 0.0 0.00 0.00 0.00 99 1012.7
20260510150740 69 0.0 0.0 0.00 0.00 0.00 99 1012.6
20260510145730 70 0.0 0.0 0.00 0.00 0.00 99 1012.6
20260510144718 70 0.0 0.0 0.00 0.00 0.00 99 1012.8
20260510143708 70 0.0 0.0 0.00 0.00 0.00 99 1012.8
20260510142655 70 0.0 0.0 0.00 0.00 0.00 99 1012.9
20260510141650 70 0.0 0.0 0.00 0.00 0.00 99 1013.0
20260510140620 70 0.0 0.0 0.00 0.00 0.00 99 1013.2
20260510135541 72 0.0 0.0 0.00 0.00 0.00 99 1013.3
20260510134513 71 0.0 0.0 0.00 0.00 0.00 99 1013.6
20260510133356 71 0.0 0.0 0.00 0.00 0.00 99 1013.8
20260510132329 71 0.0 0.0 0.00 0.00 0.00 99 1013.9
20260510131322 68 0.0 0.0 0.00 0.00 0.00 99 1014.1
20260510130310 69 0.0 0.0 0.00 0.00 0.00 99 1014.2
20260510124245 72 0.0 0.0 0.00 0.00 0.00 99 1014.5
20260510123128 73 0.0 0.0 0.00 0.00 0.00 99 1014.6
20260510122116 72 0.0 0.0 0.00 0.00 0.00 99 1014.6
20260510121111 69 0.0 0.0 0.00 0.00 0.00 99 1014.7
20260510120055 71 0.0 0.0 0.00 0.00 0.00 99 1014.6
20260510115026 73 0.0 0.0 0.00 0.00 0.00 99 1014.6
20260510114014 73 0.0 0.0 0.00 0.00 0.00 99 1014.7
20260510113002 73 0.0 0.0 0.00 0.00 0.00 99 1014.8
20260510111952 71 0.0 0.0 0.00 0.00 0.00 99 1014.9
20260510110946 74 0.0 0.0 0.00 0.00 0.00 99 1014.9
20260510105929 76 0.0 0.0 0.00 0.00 0.00 99 1014.9
20260510104917 77 0.0 0.0 0.00 0.00 0.00 99 1015.0
20260510103907 77 0.0 0.0 0.00 0.00 0.00 99 1015.2
20260510102854 79 0.0 0.0 0.00 0.00 0.00 99 1015.2
20260510101843 78 0.0 0.0 0.00 0.00 0.00 99 1015.3
20260510100837 78 0.0 0.0 0.00 0.00 0.00 99 1015.4
20260510095819 78 0.0 0.0 0.00 0.00 0.00 99 1015.4
20260510094808 79 0.0 0.0 0.00 0.00 0.00 99 1015.3
20260510093757 77 0.0 0.0 0.00 0.00 0.00 99 1015.4
20260510092745 77 0.0 0.0 0.00 0.00 0.00 99 1015.5
20260510091734 80 0.0 0.0 0.00 0.00 0.00 99 1015.4
20260510090726 81 0.0 0.0 0.00 0.00 0.00 94 1015.5
20260510085709 83 0.0 0.0 0.00 0.00 0.00 91 1015.2
20260510084658 84 0.0 0.0 0.00 0.00 0.00 89 1015.3
20260510083647 83 0.0 0.0 0.00 0.00 0.00 90 1015.3
20260510082636 84 0.0 0.0 0.00 0.00 0.00 85 1015.2
20260510081625 83 0.0 0.0 0.00 0.00 0.00 88 1015.1
20260510080619 84 0.0 0.0 0.00 0.00 0.00 84 1015.1
20260510075602 81 0.0 0.0 0.00 0.00 0.00 92 1015.4
20260510074534 84 0.0 0.0 0.00 0.00 0.00 94 1015.5
20260510073522 83 0.0 0.0 0.00 0.00 0.00 98 1015.5
20260510072512 83 0.0 0.0 0.00 0.00 0.00 96 1015.5
20260510071500 84 0.0 0.0 0.00 0.00 0.00 94 1015.5
20260510070455 87 0.0 0.0 0.00 0.00 0.00 90 1015.5
20260510065438 87 0.0 0.0 0.00 0.00 0.00 90 1015.4
20260510064325 87 0.0 0.0 0.00 0.00 0.00 86 1015.4
20260510063314 90 0.0 0.0 0.00 0.00 0.00 85 1015.2
20260510062306 91 0.0 0.0 0.00 0.00 0.00 86 1015.1
20260510061252 87 0.0 0.0 0.00 0.00 0.00 98 1015.1
20260510060246 72 0.0 0.0 0.00 0.00 0.00 99 1015.2
20260510055230 79 0.0 0.0 0.00 0.00 0.00 99 1015.1
20260510054219 77 0.0 0.0 0.00 0.00 0.00 99 1015.0
20260510053106 67 0.0 0.0 0.00 0.00 0.00 99 1015.1
20260510052055 62 0.0 0.0 0.00 0.00 0.00 99 1015.1
20260510051044 61 0.0 0.0 0.00 0.00 0.00 99 1015.1
20260510050039 61 0.0 0.0 0.00 0.00 0.00 99 1015.1
20260510045022 61 0.0 0.0 0.00 0.00 0.00 99 1015.1
20260510044010 61 0.0 0.0 0.00 0.00 0.00 99 1015.0
20260510042958 61 0.0 0.0 0.00 0.00 0.00 99 1014.9
20260510041947 60 0.0 0.0 0.00 0.00 0.00 99 1014.9
20260510040936 60 0.0 0.0 0.00 0.00 0.00 99 1015.0
20260510035928 60 0.0 0.0 0.00 0.00 0.00 99 1014.9
20260510034856 60 0.0 0.0 0.00 0.00 0.00 99 1014.9
20260510033844 60 0.0 0.0 0.00 0.00 0.00 99 1014.9
20260510032832 59 0.0 0.0 0.00 0.00 0.00 99 1014.8
20260510031821 59 0.0 0.0 0.00 0.00 0.00 99 1014.7
20260510030811 59 0.0 0.0 0.00 0.00 0.00 99 1014.8
20260510025814 60 0.0 0.0 0.00 0.00 0.00 99 1014.8
20260510021619 60 0.0 0.0 0.00 0.00 0.00 99 1014.6
20260510020609 59 0.0 0.0 0.00 0.00 0.00 99 1014.6
20260510015557 60 0.0 0.0 0.00 0.00 0.00 99 1014.6
20260510014545 60 0.0 0.0 0.00 0.00 0.00 99 1014.5
20260510013539 61 0.0 0.0 0.00 0.00 0.00 99 1014.6
20260510012524 61 0.0 0.0 0.00 0.00 0.00 99 1014.7
20260510011512 62 0.0 0.0 0.00 0.00 0.00 99 1014.8
20260510010501 62 0.0 0.0 0.00 0.00 0.00 99 1014.8
20260510005449 62 0.0 0.0 0.00 0.00 0.00 99 1014.8
20260510004437 62 0.0 0.0 0.00 0.00 0.00 99 1015.0
20260510003329 62 0.0 0.0 0.00 0.00 0.00 99 1015.0
20260510002314 62 0.0 0.0 0.00 0.00 0.00 99 1015.1
20260510001302 62 0.0 0.0 0.00 0.00 0.00 99 1015.3
20260510000251 62 0.0 0.0 0.00 0.00 0.00 99 1015.5
20260509235240 62 0.0 0.0 0.00 0.00 0.00 99 1015.5
20260509234229 62 0.0 0.0 0.00 0.00 0.00 99 1015.5
20260509233221 62 0.0 0.0 0.00 0.00 0.00 99 1015.5
20260509232206 62 0.0 0.0 0.00 0.00 0.00 99 1015.5
20260509230947 62 0.0 0.0 0.00 0.00 0.00 99 1015.4
20260509225936 62 0.0 0.0 0.00 0.00 0.00 99 1015.4
20260509224924 62 0.0 0.0 0.00 0.00 0.00 99 1015.4
20260509223913 62 0.0 0.0 0.00 0.00 0.00 99 1015.5
20260509222905 62 0.0 0.0 0.00 0.00 0.00 99 1015.5
20260509221850 62 0.0 0.0 0.00 0.00 0.00 99 1015.4
20260509220839 62 0.0 0.0 0.00 0.00 0.00 99 1015.5
20260509215827 62 0.0 0.0 0.00 0.00 0.00 99 1015.5
20260509214815 62 0.0 0.0 0.00 0.00 0.00 99 1015.5
20260509213803 62 0.0 0.0 0.00 0.00 0.00 99 1015.3
20260509212759 62 0.0 0.0 0.00 0.00 0.00 99 1015.3
20260509211741 62 0.0 0.0 0.00 0.00 0.00 99 1015.2
20260509210632 62 0.0 0.0 0.00 0.00 0.00 99 1015.4
20260509205617 62 0.0 0.0 0.00 0.00 0.00 99 1015.3
20260509204606 62 0.0 0.0 0.00 0.00 0.00 99 1015.4
20260509203555 62 0.0 0.0 0.00 0.00 0.00 99 1015.4
20260509202548 62 0.0 0.0 0.00 0.00 0.00 99 1015.1
20260509201425 62 0.0 0.0 0.00 0.00 0.00 99 1014.8
20260509200413 62 0.0 0.0 0.00 0.00 0.00 99 1014.7
20260509195402 62 0.0 0.0 0.00 0.00 0.00 99 1014.6
20260509194333 62 0.0 0.0 0.00 0.00 0.00 99 1014.5
20260509193322 62 0.0 0.0 0.00 0.00 0.00 99 1014.4
20260509192316 62 0.0 0.0 0.00 0.00 0.00 99 1014.3
20260509191300 62 0.0 0.0 0.00 0.00 0.00 99 1014.1